Theta_e
333 334 334 334 334 335 335 335 335 335 335 335 335 335 335 334 334 334 333 333 333 333 333 333 333 333 333 332 332 332 332 332 333 333 332 331 331 331 331 331 332 331 329 328 328 329 330 331 330 329 329 329 329 329 329 329 328 328 328 328 328 328 328
332 333 334 334 334 334 333 333 334 335 335 335 336 335 334 334 334 334 333 333 333 333 333 333 334 333 333 333 333 333 332 333 333 333 332 331 331 331 332 332 332 330 329 329 329 328 329 330 331 329 328 328 329 329 329 329 329 328 328 329 328 328 328
330 331 333 334 334 333 333 332 332 334 335 335 335 335 334 334 334 333 333 333 333 334 334 333 333 333 333 333 334 333 332 332 333 333 332 331 331 331 331 332 331 330 329 329 328 328 328 329 330 329 328 328 328 328 329 329 329 328 328 328 328 329 328
328 330 333 333 333 333 333 333 332 334 335 335 335 335 334 333 333 333 333 333 334 334 334 334 333 333 333 333 333 333 332 332 332 332 332 332 331 331 331 332 331 330 330 329 328 328 328 327 329 329 328 328 328 328 328 328 328 328 328 328 328 328 328
329 330 332 332 333 333 333 334 333 334 335 334 335 334 333 333 333 333 333 333 334 334 334 334 334 333 333 333 332 332 332 332 331 332 332 332 332 331 331 331 331 330 330 330 329 328 328 328 328 328 328 328 327 327 327 328 328 328 327 327 327 327 327
331 331 332 332 333 333 333 334 333 334 334 333 333 333 333 333 333 333 333 333 334 334 333 334 334 333 333 332 332 332 332 331 331 331 331 331 331 331 331 331 331 331 330 330 329 329 328 328 327 327 327 327 327 327 327 327 327 327 327 327 326 326 327
333 332 332 333 333 333 333 334 333 333 333 333 332 333 333 333 333 333 333 333 333 332 332 333 333 333 332 332 332 331 331 331 331 331 332 332 331 331 331 331 330 330 330 330 330 329 328 328 327 327 327 327 327 327 326 326 326 326 326 326 327 326 326
333 333 333 333 333 332 333 334 334 333 333 333 332 332 333 333 333 332 332 331 331 331 331 331 332 332 332 331 330 329 330 331 331 331 333 333 332 330 330 331 330 329 329 330 330 329 329 328 328 328 327 327 327 326 325 326 326 326 326 326 326 325 325
333 333 333 333 332 332 333 333 334 333 332 332 332 332 332 332 332 331 331 330 330 330 329 329 330 330 329 328 329 329 329 331 331 332 333 333 332 331 331 331 330 329 329 330 330 329 329 328 328 328 327 327 327 327 325 326 325 325 326 325 324 324 324
333 332 332 333 332 331 332 333 333 332 332 332 332 332 332 332 331 330 329 329 329 328 328 329 329 328 328 327 328 329 330 331 332 333 333 332 331 332 332 331 330 330 330 330 329 328 329 329 328 328 328 327 326 326 326 327 325 323 325 324 322 323 324
332 332 332 332 331 330 331 332 332 332 332 332 332 331 331 331 330 329 328 328 327 327 327 328 328 328 328 328 328 329 330 331 332 332 332 331 330 332 332 331 331 330 331 329 328 328 328 329 328 328 328 327 326 325 325 326 325 324 324 323 322 322 323
332 332 333 332 332 331 331 330 331 332 332 332 331 330 329 329 329 328 327 327 327 326 326 326 327 328 328 328 328 329 330 331 332 330 330 330 329 330 331 331 330 329 329 328 328 328 328 329 328 328 328 326 326 325 324 324 325 324 324 323 322 322 322
332 333 333 333 332 331 330 329 331 332 332 331 330 329 328 327 327 327 327 327 326 325 325 326 326 326 326 327 328 328 329 330 330 329 329 329 329 329 329 329 328 328 328 327 327 327 327 328 328 328 328 327 325 325 324 324 324 323 324 323 322 322 321
333 333 332 332 331 331 330 329 330 332 331 330 330 329 328 327 327 326 326 325 325 325 326 326 325 325 326 327 327 327 327 327 328 328 328 329 330 329 328 328 328 328 328 328 328 328 327 327 327 327 327 327 326 325 324 324 323 322 323 323 322 322 321
333 332 331 331 331 331 330 329 329 331 330 329 329 327 327 327 326 325 324 324 325 325 326 326 325 326 326 326 325 325 325 325 326 326 326 328 330 329 328 328 328 328 327 327 327 327 326 326 327 327 327 326 325 325 324 323 323 321 321 321 321 321 320
332 330 330 331 330 329 330 328 329 330 328 327 327 326 326 326 325 324 324 325 325 324 325 325 325 325 325 324 324 323 323 323 324 324 325 327 329 329 329 328 328 328 327 327 327 326 325 325 325 326 326 326 325 324 323 322 322 322 320 319 320 321 320
331 330 330 330 329 328 329 328 328 328 327 326 326 326 325 324 323 324 325 324 323 323 324 324 324 323 322 322 322 320 320 321 322 322 323 326 328 329 329 329 329 328 328 328 327 325 323 322 321 322 323 323 323 323 323 322 322 322 320 319 319 320 320
330 329 329 328 328 328 328 328 328 327 327 326 326 325 323 323 323 325 325 323 323 323 322 323 323 321 320 320 319 319 319 319 321 322 324 326 327 327 329 329 328 329 328 328 325 322 321 321 320 320 320 321 322 321 322 322 321 321 321 320 319 318 319
329 329 328 328 328 328 328 328 327 327 327 326 325 323 322 323 323 324 324 323 322 322 322 322 322 321 319 319 319 319 319 320 321 323 324 325 326 328 329 329 328 328 327 325 323 321 320 319 319 319 319 320 320 320 320 320 319 320 320 320 319 317 317
327 328 328 327 327 328 328 327 327 327 326 326 323 322 322 323 323 323 323 323 322 322 322 321 321 321 320 319 319 320 320 320 321 323 324 325 327 328 328 327 327 326 324 322 321 321 320 320 319 319 319 318 318 319 319 317 317 318 319 318 317 316 315
326 327 327 326 326 327 328 327 326 326 326 325 322 322 322 322 323 322 322 323 323 323 322 321 320 320 319 319 319 320 321 322 322 323 325 326 327 326 326 325 324 322 322 322 321 321 321 320 320 320 319 319 319 318 317 316 316 316 317 316 315 314 312
326 326 326 325 326 327 327 327 326 326 326 324 322 322 322 321 321 321 321 321 323 323 322 320 318 317 318 319 319 319 321 321 322 323 324 325 325 324 323 322 322 321 321 320 320 321 320 320 320 320 320 320 320 319 319 318 317 316 314 313 313 312 311
327 326 325 325 326 325 326 326 325 325 325 323 322 322 321 319 319 319 319 320 322 322 321 319 317 317 319 319 320 321 321 321 320 322 323 323 322 321 321 321 320 320 320 320 319 319 319 319 319 319 319 320 320 320 320 320 320 318 316 314 313 312 311
327 325 325 326 325 324 325 326 325 325 324 322 322 322 320 319 318 318 319 320 320 320 319 318 318 319 320 320 320 322 322 322 322 321 322 322 321 321 321 320 320 320 320 320 319 319 318 318 318 318 318 318 318 319 318 318 319 319 319 318 318 317 315
326 326 325 325 324 323 324 325 325 324 323 322 322 321 320 319 319 319 319 319 319 320 320 320 321 321 321 320 320 321 322 322 322 322 322 322 322 322 321 321 321 320 320 320 319 319 319 319 318 318 318 317 318 318 318 318 317 317 317 317 318 318 319
324 325 325 324 323 323 323 323 324 323 323 322 321 320 319 318 318 319 319 319 319 320 320 320 320 321 321 322 322 323 322 322 322 322 322 321 321 321 321 321 321 320 320 320 320 320 320 320 320 320 320 320 320 319 319 320 320 320 320 319 318 318 319
322 322 323 323 323 322 322 322 321 322 321 320 320 319 318 318 318 318 318 318 318 318 318 318 318 318 319 319 320 320 320 321 321 320 320 320 320 320 321 321 320 320 320 320 320 320 320 320 320 320 321 322 320 319 320 321 321 322 322 322 321 321 320
320 320 321 321 321 320 321 321 321 321 320 320 319 319 318 318 317 317 317 317 317 316 316 316 315 315 316 317 317 315 314 315 316 316 318 320 320 320 320 320 320 320 320 320 320 320 320 320 320 320 320 321 321 320 320 321 321 321 321 321 321 321 320
318 319 319 320 319 318 319 319 320 320 320 319 318 317 317 316 316 315 315 316 316 316 315 315 313 314 316 318 318 316 314 315 317 319 320 321 321 320 320 319 319 319 320 320 320 320 320 320 320 320 321 321 322 321 321 322 321 321 321 320 320 320 320
318 317 318 318 318 317 317 318 318 318 318 318 317 316 315 314 314 314 314 314 315 315 316 316 315 315 316 318 317 317 318 319 320 320 320 320 320 320 319 319 319 319 319 319 320 320 320 321 321 321 321 321 321 321 321 321 321 321 320 320 319 319 319
317 317 317 317 317 317 317 316 316 316 316 317 317 316 315 314 313 313 314 314 315 316 316 317 317 317 317 317 317 318 319 319 319 319 319 319 319 319 319 319 318 318 318 318 318 318 318 319 319 320 320 320 320 320 320 320 320 320 319 319 319 319 319
317 317 317 317 317 317 316 316 316 316 316 316 316 316 316 315 314 314 314 314 313 314 315 315 316 317 318 318 318 319 318 319 319 318 317 317 317 316 316 315 315 314 314 314 313 313 312 312 313 314 315 316 316 317 318 318 318 318 318 318 318 318 317
316 318 318 318 318 317 317 316 316 316 316 317 316 315 315 314 312 311 310 309 308 309 310 311 313 315 316 317 318 318 319 319 318 316 314 314 313 312 311 311 311 310 310 310 310 309 309 309 308 309 309 310 311 312 313 314 315 316 317 318 318 317 317
314 315 317 318 318 318 318 317 317 317 317 316 314 311 309 308 306 304 303 303 303 304 305 306 307 309 312 314 315 316 317 317 317 315 313 311 310 309 309 308 308 308 308 308 307 306 306 305 304 304 305 306 307 307 307 308 309 311 313 316 317 317 316
311 312 314 316 317 316 316 316 315 314 314 313 310 307 305 304 302 300 298 298 299 299 300 301 302 303 305 308 310 312 314 314 314 313 312 310 309 309 308 307 306 306 305 304 302 300 300 300 301 301 302 303 304 305 305 306 307 309 311 313 315 316 315
308 309 311 313 314 313 313 312 311 310 310 309 307 304 303 302 301 299 297 297 297 296 297 297 297 298 299 301 304 306 308 308 309 310 310 308 306 304 303 302 301 300 299 298 297 298 299 301 301 302 302 302 303 303 304 306 308 309 311 311 312 312 312
305 306 308 310 311 311 311 310 309 307 306 305 304 303 302 301 300 298 297 296 296 296 296 296 296 296 296 297 298 299 301 302 302 303 303 302 300 298 297 297 297 297 298 298 299 300 302 303 303 303 303 303 303 304 303 304 305 306 307 308 308 309 309
Wind_Speed
17 17 16 15 17 17 17 18 19 19 19 20 19 18 18 17 16 15 15 16 15 14 14 16 15 16 17 17 17 17 17 19 22 24 22 21 22 16 11 10 7 6 15 15 11 9 5 2 4 5 7 9 10 10 10 10 11 11 10 9 9 9 10
15 14 15 14 15 16 15 16 17 18 19 18 18 16 15 15 15 14 15 16 15 15 15 16 16 16 16 16 16 16 18 20 21 21 20 23 23 18 12 10 7 11 14 11 13 13 7 4 3 3 5 8 8 10 10 9 9 9 10 10 10 10 9
14 13 14 15 15 15 14 14 16 18 19 17 16 15 14 14 14 15 16 16 16 16 16 16 16 16 16 15 15 15 17 18 19 18 18 21 21 18 15 12 11 15 13 8 12 13 8 5 3 4 7 7 6 8 9 9 9 8 9 9 9 10 10
16 15 13 16 16 15 15 15 15 18 19 17 15 14 13 14 15 15 16 16 17 17 16 16 15 16 16 15 15 15 15 15 17 17 16 18 18 17 16 15 15 19 16 11 16 17 11 7 5 5 8 8 8 8 8 9 9 8 8 8 9 10 11
19 17 15 17 18 18 18 18 17 18 18 17 15 15 14 14 14 15 16 17 18 17 16 15 14 15 15 15 15 15 14 14 15 16 16 17 17 16 17 16 17 20 18 15 19 21 16 15 13 8 8 10 7 7 9 9 9 9 7 7 9 9 10
21 21 19 18 20 21 20 20 20 20 19 18 17 17 16 15 15 16 17 18 17 16 15 15 14 15 15 15 14 14 14 14 14 15 16 16 15 16 17 16 17 19 16 14 17 19 17 19 19 12 10 11 7 7 10 10 9 8 7 9 9 9 9
23 23 22 21 20 22 22 22 22 22 21 20 19 19 17 16 16 16 17 17 17 15 14 15 15 15 15 14 13 13 14 15 15 15 15 14 13 15 17 15 15 17 16 14 17 19 18 20 21 18 13 9 8 10 9 8 10 8 6 9 9 9 10
23 22 21 21 21 22 22 22 22 22 21 20 20 19 18 17 17 17 17 16 16 15 14 15 16 15 14 13 13 12 13 14 14 14 13 13 12 13 14 14 14 16 15 14 17 20 19 19 23 25 21 10 6 7 5 7 10 8 8 10 8 9 9
21 20 19 18 20 22 22 22 21 20 20 20 20 19 19 19 19 18 17 16 16 16 15 15 17 16 14 13 12 11 12 13 13 13 13 13 13 13 12 12 13 15 14 13 15 18 18 20 23 27 26 18 10 5 3 5 6 6 10 12 9 8 8
20 18 17 17 17 19 20 21 20 19 20 20 19 19 19 19 19 19 17 17 17 16 15 15 17 16 14 13 12 11 12 12 12 12 12 12 13 13 12 12 13 13 13 11 13 15 17 20 25 26 26 25 19 10 4 3 5 7 12 13 10 9 9
19 18 19 19 19 19 19 20 22 21 20 20 20 20 20 19 20 19 18 18 18 16 15 14 16 15 14 12 12 11 11 12 12 11 11 12 13 13 13 13 12 12 12 12 13 15 17 20 24 26 25 25 23 16 11 6 4 9 15 14 12 11 12
21 21 21 20 22 23 20 20 24 24 22 23 22 21 20 20 20 19 18 17 16 14 13 13 14 15 14 13 12 11 11 11 11 11 10 11 12 13 13 13 12 12 13 12 13 14 17 20 23 25 24 24 23 19 18 13 5 9 17 17 14 12 12
22 21 20 20 22 25 22 20 23 26 25 24 23 22 21 19 19 18 16 16 15 14 14 13 13 14 14 13 13 13 12 12 11 11 10 10 10 11 12 13 13 13 13 13 13 13 16 19 21 23 24 24 22 19 19 17 8 8 17 19 16 14 13
21 20 20 22 24 26 23 21 24 26 25 25 25 23 21 19 18 16 15 16 16 15 15 15 14 15 15 15 14 13 13 12 11 10 10 10 10 10 12 13 13 13 13 12 11 12 15 17 19 22 23 23 23 21 19 17 12 10 14 17 16 15 15
21 21 22 24 25 25 24 25 26 27 26 25 25 23 21 19 16 15 16 17 16 15 16 16 15 16 16 14 13 13 12 12 12 11 10 10 10 10 12 13 13 12 13 12 12 11 12 14 16 20 22 22 23 24 21 18 15 14 15 16 17 17 17
22 22 23 25 24 24 27 29 29 29 27 25 23 21 20 18 17 18 18 16 15 15 16 17 16 15 14 13 13 12 11 11 13 12 11 11 11 11 11 12 12 12 11 11 11 9 10 11 11 16 20 20 22 24 24 21 18 18 17 17 19 20 20
23 24 25 27 28 28 31 32 31 28 26 24 22 20 17 17 19 20 18 16 16 16 17 18 17 14 12 12 11 10 11 12 13 12 12 12 11 11 12 12 12 11 10 10 8 6 7 8 8 11 16 18 18 22 26 25 21 21 21 20 21 23 23
25 26 28 30 31 32 34 32 29 27 26 24 21 18 17 18 21 21 18 18 17 16 17 16 15 13 11 10 10 10 12 13 13 12 13 13 12 11 11 12 12 10 9 8 5 2 3 6 7 9 12 14 15 19 24 26 24 23 23 23 23 23 23
26 27 30 32 31 31 31 30 28 26 26 24 20 19 20 21 21 20 18 18 17 15 15 13 12 12 11 10 10 9 11 13 13 13 13 12 11 10 11 12 11 9 7 5 4 4 5 6 6 8 9 11 14 17 21 24 24 23 23 24 25 24 24
23 23 27 31 29 28 28 26 26 26 24 23 22 21 22 22 20 19 18 17 16 15 14 12 12 12 11 10 10 8 9 12 15 15 13 12 12 11 12 12 10 8 7 7 8 8 8 8 8 8 9 11 11 14 17 19 21 21 22 23 24 24 26
17 17 21 24 25 26 26 24 25 26 24 24 22 20 21 21 20 20 19 18 17 15 14 13 13 14 12 11 10 10 11 15 17 17 15 14 14 13 13 12 11 10 10 11 11 9 8 8 9 9 9 9 9 12 14 16 18 20 21 22 23 24 25
11 14 16 19 21 23 24 24 24 24 23 23 21 19 20 21 22 22 21 19 18 17 15 15 15 14 13 12 12 13 16 17 18 18 18 16 15 15 15 14 13 12 11 11 10 9 7 7 8 9 8 7 6 7 9 10 12 15 19 20 21 21 21
11 15 17 20 21 19 20 24 23 21 23 24 21 18 19 21 22 22 21 20 19 17 16 16 15 14 13 15 16 17 17 18 19 19 20 19 17 16 15 14 12 10 9 8 8 7 6 5 4 4 4 5 5 5 5 5 5 7 12 15 17 18 18
14 16 17 21 21 17 19 23 22 21 23 23 20 18 18 19 21 22 22 21 19 17 16 16 15 15 16 17 18 17 17 18 20 20 20 19 17 16 14 12 11 8 6 5 4 3 3 2 1 1 1 2 3 3 3 3 2 2 3 5 6 8 11
17 17 19 22 19 15 19 23 22 22 23 20 19 19 19 21 23 24 23 22 20 19 18 17 18 18 17 16 16 16 17 18 18 17 17 16 15 12 11 9 6 3 1 1 1 1 1 1 2 2 2 2 2 2 2 1 1 1 3 4 3 5 8
17 17 19 20 17 16 20 23 22 22 23 22 22 22 23 25 26 26 25 24 23 22 21 20 20 20 18 18 18 17 17 16 16 15 13 12 10 8 7 5 4 3 4 4 2 2 3 3 3 4 4 4 3 3 2 2 1 0 3 5 5 7 9
19 17 17 19 20 20 23 24 25 26 27 27 27 27 27 27 26 25 25 25 24 23 21 19 19 20 20 19 19 18 17 15 13 12 9 8 7 5 5 5 4 4 4 4 3 3 4 4 5 5 5 5 5 5 5 3 1 2 4 5 5 6 7
23 21 21 23 24 23 24 25 27 29 32 32 31 31 29 27 26 25 23 23 23 22 20 17 16 17 17 16 16 15 13 10 9 9 8 7 8 8 8 6 4 3 2 3 3 3 4 4 6 7 6 6 6 6 5 3 2 4 6 7 9 9 9
23 24 25 27 27 26 27 28 29 30 33 32 30 30 29 26 25 24 21 20 20 19 18 15 14 12 11 10 9 8 9 9 9 10 10 9 8 8 7 6 4 2 2 3 4 4 4 4 5 6 6 6 6 5 4 3 4 5 7 8 10 12 12
20 21 23 26 28 28 27 27 27 27 28 29 27 26 26 24 22 21 20 18 17 17 16 14 12 11 9 9 10 11 13 14 12 11 10 9 7 6 6 4 3 2 2 4 4 4 4 3 4 5 5 5 6 6 5 5 6 7 8 9 10 11 12
16 17 18 19 22 23 21 20 20 19 21 25 26 24 23 23 22 20 19 17 15 15 16 14 12 11 10 11 13 15 15 14 13 13 12 11 9 7 6 5 3 3 2 1 1 2 2 2 2 3 4 4 4 4 5 6 7 8 8 8 7 8 10
15 16 16 15 17 19 17 14 13 14 18 23 24 22 21 22 22 20 16 15 15 16 17 16 14 13 13 12 13 14 14 14 15 15 13 12 11 8 7 6 5 4 4 4 4 4 4 4 3 3 3 4 5 5 6 7 7 7 7 6 6 7 8
17 17 17 16 16 18 18 16 14 15 19 21 23 23 22 22 24 22 19 18 18 18 18 18 16 14 14 13 13 13 14 15 17 16 14 13 12 11 9 8 7 7 7 7 7 6 6 6 6 6 5 5 6 6 7 7 7 7 7 7 8 8 8
20 19 18 18 18 18 20 20 21 22 23 24 25 27 27 27 27 26 22 21 21 20 19 19 17 15 14 13 13 13 14 16 17 16 15 14 12 11 10 8 8 7 6 6 7 7 7 7 7 7 7 6 6 7 7 8 8 8 8 8 8 9 9
21 20 19 19 20 19 20 22 24 26 27 27 28 29 29 28 28 26 24 22 22 21 19 18 18 16 15 14 14 13 14 15 13 12 13 12 11 9 8 6 6 5 5 5 6 6 6 6 6 6 6 6 6 7 7 8 8 8 7 6 6 7 8
21 21 20 20 21 21 21 22 23 25 27 28 28 28 28 28 28 26 24 23 22 20 19 17 17 15 14 13 13 13 13 12 10 8 8 8 8 6 5 4 3 3 4 4 5 5 6 6 7 7 7 7 7 7 7 7 7 7 7 7 7 8 9
21 21 21 21 22 22 22 22 22 23 25 26 26 24 23 24 25 25 23 22 21 19 18 17 16 15 13 12 11 10 10 9 8 6 5 5 5 4 4 4 4 4 5 7 7 8 9 10 11 11 11 11 10 10 10 11 10 10 10 11 11 11 12
Wind_Direction
214 211 207 206 208 210 209 209 207 201 196 194 193 192 190 189 188 189 193 193 189 185 179 176 176 175 176 178 180 185 186 182 181 184 187 188 190 199 208 217 253 213 174 171 170 154 131 138 159 169 181 179 178 181 183 183 182 182 183 187 194 202 206
230 217 207 207 208 210 213 210 206 201 197 196 195 194 192 189 190 193 193 192 188 181 174 174 175 174 176 178 180 184 187 189 192 192 187 185 192 200 198 203 211 173 162 168 167 154 136 144 149 146 167 170 175 183 186 187 188 186 186 192 198 202 208
230 227 210 204 204 204 210 207 200 198 198 199 198 196 195 192 193 196 194 191 188 180 174 174 176 179 182 182 182 183 186 193 197 197 192 188 196 203 196 191 185 168 156 152 162 158 144 143 138 142 158 155 162 182 186 183 185 190 193 198 204 207 212
216 226 211 197 196 196 202 203 195 195 199 202 201 197 197 197 196 195 193 190 187 182 177 176 178 181 184 185 186 186 189 194 197 197 194 190 194 201 196 193 190 182 178 176 172 166 158 148 135 142 159 158 154 166 178 180 180 188 197 203 207 211 215
207 216 211 199 194 192 196 198 193 195 200 202 202 200 198 198 196 191 189 187 186 184 180 177 180 180 182 186 189 190 192 193 194 195 194 192 195 199 196 196 198 192 190 191 183 177 172 163 154 149 157 157 150 155 166 173 179 186 197 205 209 215 220
207 210 211 207 200 195 194 195 195 195 196 199 201 199 194 189 188 185 183 184 184 182 179 179 184 184 184 186 187 188 191 191 191 191 193 194 197 201 199 198 200 197 194 198 195 189 181 165 154 149 156 157 145 142 152 159 169 181 195 204 210 217 222
207 208 206 208 205 200 198 198 198 193 191 195 194 188 183 179 177 176 175 176 176 175 177 182 186 187 188 189 186 186 189 189 189 190 193 195 197 201 202 201 203 204 201 202 199 193 186 172 159 152 151 148 138 140 144 154 163 168 186 201 210 217 223
207 207 203 207 206 203 202 200 197 194 191 189 183 177 174 171 169 168 167 168 169 168 173 181 183 184 186 184 177 177 182 184 185 187 192 196 196 198 202 203 203 204 201 197 197 197 196 189 175 163 155 142 130 144 142 155 168 176 187 195 215 228 227
205 205 204 206 206 204 204 201 199 196 190 183 177 172 169 167 166 167 169 172 173 170 171 177 177 175 173 171 167 166 173 179 182 185 193 201 202 199 202 205 201 197 195 194 197 200 202 198 185 172 163 157 150 148 139 157 176 190 190 191 203 226 224
198 199 200 201 204 206 204 204 202 195 185 179 178 175 170 171 171 167 164 164 167 166 165 172 174 172 170 170 171 171 174 180 184 187 196 205 205 202 203 205 202 197 196 200 200 198 200 196 187 179 174 169 162 152 146 175 190 188 188 192 195 200 203
194 192 195 194 197 202 202 203 197 187 181 176 174 173 171 173 173 168 163 158 159 158 156 163 170 174 178 179 180 180 182 185 186 191 199 201 201 202 205 207 208 207 205 204 198 193 195 194 188 184 184 181 173 165 161 161 192 193 186 192 203 199 190
193 191 195 192 193 194 194 197 189 179 176 174 171 168 166 167 169 170 170 166 164 162 157 156 162 173 181 183 179 177 181 183 180 180 182 187 194 199 205 209 207 204 203 197 190 188 191 193 192 189 190 189 186 182 172 159 163 200 191 192 205 208 195
191 192 195 190 188 184 184 197 189 176 175 174 172 171 169 170 171 173 176 178 177 171 162 157 158 166 171 167 162 160 167 172 171 170 169 173 185 192 198 200 193 191 190 187 188 189 192 194 195 196 197 195 195 196 184 168 155 188 196 198 204 209 203
190 194 191 183 183 177 178 197 192 176 174 174 173 176 176 176 176 177 179 180 177 171 166 162 158 158 156 154 156 160 164 170 172 173 172 175 181 182 185 185 182 183 184 183 187 192 195 196 197 200 201 200 201 202 194 180 161 165 191 204 210 212 207
192 193 184 179 184 179 177 191 188 176 172 173 174 177 175 174 176 177 174 170 169 169 169 168 162 158 157 158 165 171 174 179 182 179 178 180 181 177 178 180 180 182 182 182 184 188 193 195 199 203 202 204 207 207 202 194 176 166 181 200 208 210 205
193 188 182 179 182 178 177 183 181 173 171 170 171 172 171 172 172 171 168 164 163 164 165 168 165 163 166 169 174 178 184 190 187 183 185 188 186 183 182 180 180 181 182 183 186 189 191 194 204 208 207 211 215 212 209 205 193 182 180 188 202 207 202
192 186 182 177 173 171 172 175 175 173 170 167 167 170 171 170 169 167 164 162 162 158 158 164 165 167 172 176 182 187 194 198 194 188 188 189 186 186 188 184 180 180 183 184 185 189 198 211 226 219 216 219 218 214 211 209 205 197 186 183 197 206 204
189 183 178 172 169 168 169 170 171 171 169 167 169 172 169 165 165 164 162 165 165 157 158 163 166 169 171 173 182 185 182 185 185 180 180 182 178 178 185 185 181 181 182 181 178 162 189 217 225 218 217 215 207 205 206 206 208 204 194 190 194 200 205
182 178 175 170 168 169 168 168 170 170 168 168 170 170 167 163 161 162 165 168 164 157 160 161 162 169 169 166 170 168 168 175 175 171 174 176 172 170 174 175 175 177 173 157 138 118 119 144 164 175 186 191 192 196 200 204 206 203 199 198 194 194 201
177 178 176 172 170 172 170 168 170 170 167 168 169 170 173 169 164 162 163 163 160 162 167 163 164 174 175 170 163 152 160 172 168 165 167 167 163 157 158 160 158 155 142 116 109 112 113 120 129 146 164 171 179 188 195 200 201 198 197 196 194 194 199
176 182 179 174 172 173 171 169 172 173 171 170 171 175 178 176 172 168 165 165 166 170 172 169 169 174 173 171 164 146 145 154 157 160 160 156 154 149 147 148 140 132 124 113 110 110 108 108 111 119 140 157 165 173 182 188 194 197 198 195 194 198 201
177 185 183 178 172 170 171 172 175 177 175 172 171 173 176 176 176 173 170 172 175 176 176 173 171 172 172 169 158 143 140 144 149 156 154 146 144 142 139 136 130 125 119 113 112 113 108 102 101 103 108 118 131 149 164 175 188 199 202 201 199 200 202
172 173 173 176 175 173 173 174 175 175 173 172 170 169 169 170 172 172 171 171 174 175 176 174 172 170 167 160 148 137 134 136 139 144 145 142 139 136 132 128 125 126 126 120 113 108 105 98 92 99 109 112 107 106 119 134 159 180 191 197 200 203 205
163 160 160 169 177 183 180 175 173 172 171 169 168 167 164 161 161 163 162 160 161 163 165 165 161 155 152 153 149 139 131 132 134 137 140 142 139 134 130 128 126 125 125 127 123 107 97 89 71 58 168 168 155 136 111 109 131 150 178 191 199 215 214
162 160 160 165 173 181 180 176 173 171 168 163 161 159 154 150 149 149 149 146 143 142 143 143 141 141 143 148 149 142 134 133 133 134 138 140 138 134 132 133 134 131 145 233 243 237 245 252 264 272 261 235 215 192 169 151 150 197 245 241 238 247 238
158 158 162 166 165 161 162 163 163 162 159 153 150 146 142 141 139 138 139 136 130 127 127 128 129 131 135 139 139 134 127 126 127 127 128 129 129 129 127 127 138 169 203 227 233 231 243 251 257 256 244 228 213 188 176 169 119 275 254 239 231 237 242
139 137 145 151 151 147 145 145 145 145 144 141 138 134 132 131 129 128 130 129 125 123 122 120 120 121 123 126 128 124 116 112 112 110 106 107 116 120 106 99 114 151 184 209 215 222 238 248 251 253 251 237 222 213 211 209 224 293 293 284 277 275 279
121 122 125 130 131 129 127 124 125 128 131 130 128 127 126 125 123 123 123 125 125 122 120 120 121 120 119 118 118 112 105 101 102 104 108 113 117 115 105 104 121 158 198 227 239 245 246 245 246 250 251 241 228 224 231 236 251 278 284 287 292 295 296
110 115 118 120 118 113 111 112 115 119 122 123 123 123 123 121 120 119 119 123 124 119 116 119 123 125 126 131 131 115 110 123 128 125 128 129 122 115 115 121 131 158 224 248 260 269 264 253 254 259 254 241 232 234 246 256 262 271 277 284 291 294 294
101 107 111 116 116 112 107 107 109 112 114 115 116 116 116 114 114 114 114 115 117 115 112 112 121 130 136 149 159 153 141 140 141 139 140 140 137 136 136 144 158 180 228 254 267 280 287 279 269 275 275 261 247 242 249 258 262 271 281 289 294 295 295
100 102 103 108 113 115 110 104 104 108 110 111 111 111 110 110 107 105 103 100 103 109 108 108 119 130 132 139 150 152 148 142 139 141 142 137 137 143 145 154 171 167 168 215 282 317 328 332 306 288 290 287 272 257 263 275 281 284 286 288 294 300 301
101 102 104 108 113 118 121 119 118 121 119 116 114 113 113 110 104 100 98 98 102 106 106 106 113 122 130 140 148 148 148 146 140 138 137 131 128 130 127 123 113 99 91 79 63 50 36 33 30 16 344 328 323 312 302 302 303 302 298 294 297 301 301
95 97 102 110 115 121 129 135 137 132 125 120 118 118 117 113 107 105 107 108 105 103 102 101 103 112 124 135 143 146 150 151 146 138 130 124 122 118 110 101 91 82 75 67 60 50 42 37 33 32 25 10 1 350 338 332 323 313 308 305 302 299 295
87 92 98 109 117 122 128 135 138 133 126 123 120 117 114 111 107 105 105 104 100 97 97 96 96 101 110 119 131 141 145 147 146 140 128 120 116 111 103 94 84 75 64 53 46 37 33 30 25 23 22 16 12 1 352 350 342 327 317 305 296 295 294
82 88 94 104 111 114 119 126 129 128 126 124 121 115 112 111 108 103 100 98 96 94 94 94 94 96 101 108 116 123 125 127 134 136 128 118 111 106 98 86 73 60 45 35 32 33 37 38 35 33 27 20 16 8 0 359 357 351 345 330 314 309 310
80 84 89 97 102 103 107 112 114 116 120 119 116 113 112 111 109 104 98 95 94 93 91 91 91 92 95 101 107 111 115 117 120 125 122 112 104 97 88 76 62 52 45 46 53 58 61 60 59 56 49 41 33 26 20 16 12 10 10 6 0 355 348
81 85 88 94 98 98 100 102 103 106 111 111 110 108 107 107 106 102 98 95 93 93 92 90 89 88 88 93 97 101 107 110 109 109 108 102 94 87 84 82 81 83 84 81 80 78 74 73 72 69 66 63 59 52 45 39 33 27 22 19 15 9 4